Time,TemperatureF,DewpointF,PressureIn,WindDirection,WindDirectionDegrees,WindSpeedMPH,WindSpeedGustMPH,Humidity,HourlyPrecipIn,Conditions,Clouds,dailyrainin,SolarRadiationWatts/m^2,SoftwareType,DateUTC
2013-01-23 00:02:00,27.0,9.0,-100.00,ENE,66,4.0,7.0,47,0.00,,,0.00,0.000000,,2013-01-23 07:02:00,
2013-01-23 00:12:00,27.0,9.0,-100.00,ENE,66,4.0,7.0,47,0.00,,,0.00,0.000000,,2013-01-23 07:12:00,
2013-01-23 00:22:00,27.0,9.0,-100.00,ENE,66,4.0,7.0,47,0.00,,,0.00,0.000000,,2013-01-23 07:22:00,
2013-01-23 00:32:00,27.0,9.0,-100.00,ENE,66,4.0,7.0,47,0.00,,,0.00,0.000000,,2013-01-23 07:32:00,
2013-01-23 00:53:00,25.0,9.0,-100.00,ENE,78,5.0,6.0,50,0.00,,,0.00,0.000000,,2013-01-23 07:53:00,
2013-01-23 01:02:00,25.0,9.0,-100.00,ENE,78,5.0,6.0,50,0.00,,,0.00,0.000000,,2013-01-23 08:02:00,
2013-01-23 01:12:00,25.0,9.0,-100.00,ENE,78,5.0,6.0,50,0.00,,,0.00,0.000000,,2013-01-23 08:12:00,
2013-01-23 01:22:00,25.0,9.0,-100.00,ENE,78,5.0,6.0,50,0.00,,,0.00,0.000000,,2013-01-23 08:22:00,
2013-01-23 01:32:00,25.0,9.0,-100.00,ENE,78,5.0,6.0,50,0.00,,,0.00,0.000000,,2013-01-23 08:32:00,
2013-01-23 01:53:00,23.0,8.0,-100.00,ENE,63,7.0,7.0,53,0.00,,,0.00,0.000000,,2013-01-23 08:53:00,
2013-01-23 02:02:00,23.0,8.0,-100.00,ENE,63,7.0,7.0,53,0.00,,,0.00,0.000000,,2013-01-23 09:02:00,
2013-01-23 02:12:00,23.0,8.0,-100.00,ENE,63,7.0,7.0,53,0.00,,,0.00,0.000000,,2013-01-23 09:12:00,
2013-01-23 02:22:00,23.0,8.0,-100.00,ENE,63,7.0,7.0,53,0.00,,,0.00,0.000000,,2013-01-23 09:22:00,
2013-01-23 02:32:00,23.0,8.0,-100.00,ENE,63,7.0,7.0,53,0.00,,,0.00,0.000000,,2013-01-23 09:32:00,
2013-01-23 02:53:00,23.0,8.0,-100.00,NE,55,7.0,8.0,51,0.00,,,0.00,0.000000,,2013-01-23 09:53:00,
2013-01-23 03:02:00,23.0,8.0,-100.00,NE,55,7.0,8.0,51,0.00,,,0.00,0.000000,,2013-01-23 10:02:00,
2013-01-23 03:12:00,23.0,8.0,-100.00,NE,55,7.0,8.0,51,0.00,,,0.00,0.000000,,2013-01-23 10:12:00,
2013-01-23 03:22:00,23.0,8.0,-100.00,NE,55,7.0,8.0,51,0.00,,,0.00,0.000000,,2013-01-23 10:22:00,
2013-01-23 03:32:00,23.0,8.0,-100.00,NE,55,7.0,8.0,51,0.00,,,0.00,0.000000,,2013-01-23 10:32:00,
2013-01-23 03:53:00,24.0,7.0,-100.00,ENE,66,5.0,8.0,47,0.00,,,0.00,0.000000,,2013-01-23 10:53:00,
2013-01-23 04:02:00,24.0,7.0,-100.00,ENE,66,5.0,8.0,47,0.00,,,0.00,0.000000,,2013-01-23 11:02:00,
2013-01-23 04:12:00,24.0,7.0,-100.00,ENE,66,5.0,8.0,47,0.00,,,0.00,0.000000,,2013-01-23 11:12:00,
2013-01-23 04:22:00,24.0,7.0,-100.00,ENE,66,5.0,8.0,47,0.00,,,0.00,0.000000,,2013-01-23 11:22:00,
2013-01-23 04:32:00,24.0,7.0,-100.00,ENE,66,5.0,8.0,47,0.00,,,0.00,0.000000,,2013-01-23 11:32:00,
2013-01-23 04:53:00,22.0,8.0,-100.00,ENE,68,7.0,8.0,53,0.00,,,0.00,0.000000,,2013-01-23 11:53:00,
2013-01-23 05:03:00,22.0,8.0,-100.00,ENE,68,7.0,8.0,53,0.00,,,0.00,0.000000,,2013-01-23 12:03:00,
2013-01-23 05:12:00,22.0,8.0,-100.00,ENE,68,7.0,8.0,53,0.00,,,0.00,0.000000,,2013-01-23 12:12:00,
2013-01-23 05:22:00,22.0,8.0,-100.00,ENE,68,7.0,8.0,53,0.00,,,0.00,0.000000,,2013-01-23 12:22:00,
2013-01-23 05:32:00,22.0,8.0,-100.00,ENE,68,7.0,8.0,53,0.00,,,0.00,0.000000,,2013-01-23 12:32:00,
2013-01-23 05:53:00,20.0,5.0,-100.00,East,81,8.0,10.0,51,0.00,,,0.00,0.000000,,2013-01-23 12:53:00,
2013-01-23 06:03:00,20.0,5.0,-100.00,East,81,8.0,10.0,51,0.00,,,0.00,0.000000,,2013-01-23 13:03:00,
2013-01-23 06:12:00,20.0,5.0,-100.00,East,81,8.0,10.0,51,0.00,,,0.00,0.000000,,2013-01-23 13:12:00,
2013-01-23 06:22:00,20.0,5.0,-100.00,East,81,8.0,10.0,51,0.00,,,0.00,0.000000,,2013-01-23 13:22:00,
2013-01-23 06:33:00,20.0,5.0,-100.00,East,81,8.0,10.0,51,0.00,,,0.00,0.000000,,2013-01-23 13:33:00,
2013-01-23 06:53:00,23.0,7.0,-100.00,NE,56,4.0,8.0,49,0.00,,,-99.99,0.000000,,2013-01-23 13:53:00,
2013-01-23 07:02:00,23.0,7.0,-100.00,NE,56,4.0,8.0,49,0.00,,,-99.99,0.000000,,2013-01-23 14:02:00,
2013-01-23 07:12:00,23.0,7.0,-100.00,NE,56,4.0,8.0,49,0.00,,,-99.99,0.000000,,2013-01-23 14:12:00,
2013-01-23 07:23:00,23.0,7.0,-100.00,NE,56,4.0,8.0,49,0.00,,,-99.99,0.000000,,2013-01-23 14:23:00,
2013-01-23 07:33:00,23.0,7.0,-100.00,NE,56,4.0,8.0,49,0.00,,,-99.99,0.000000,,2013-01-23 14:33:00,
2013-01-23 07:53:00,20.0,8.0,-100.00,ENE,69,4.0,7.0,59,-99.99,,,0.00,2.000000,,2013-01-23 14:53:00,
2013-01-23 08:02:00,20.0,8.0,-100.00,ENE,69,4.0,7.0,59,-99.99,,,0.00,2.000000,,2013-01-23 15:02:00,
2013-01-23 08:12:00,20.0,8.0,-100.00,ENE,69,4.0,7.0,59,-99.99,,,0.00,2.000000,,2013-01-23 15:12:00,
2013-01-23 08:22:00,20.0,8.0,-100.00,ENE,69,4.0,7.0,59,-99.99,,,0.00,2.000000,,2013-01-23 15:22:00,
2013-01-23 08:33:00,20.0,8.0,-100.00,ENE,69,4.0,7.0,59,-99.99,,,0.00,2.000000,,2013-01-23 15:33:00,
2013-01-23 08:53:00,24.0,7.0,-100.00,NE,52,2.0,12.0,48,0.00,,,0.00,74.000000,,2013-01-23 15:53:00,
2013-01-23 09:03:00,24.0,7.0,-100.00,NE,52,2.0,12.0,48,0.00,,,0.00,74.000000,,2013-01-23 16:03:00,
2013-01-23 09:12:00,24.0,7.0,-100.00,NE,52,2.0,12.0,48,0.00,,,0.00,74.000000,,2013-01-23 16:12:00,
2013-01-23 09:22:00,24.0,7.0,-100.00,NE,52,2.0,12.0,48,0.00,,,0.00,74.000000,,2013-01-23 16:22:00,
2013-01-23 09:32:00,24.0,7.0,-100.00,NE,52,2.0,12.0,48,0.00,,,0.00,74.000000,,2013-01-23 16:32:00,
2013-01-23 09:53:00,33.0,7.0,-100.00,North,8,1.0,3.0,33,0.00,,,0.00,253.000000,,2013-01-23 16:53:00,
2013-01-23 10:03:00,33.0,7.0,-100.00,North,8,1.0,3.0,33,0.00,,,0.00,253.000000,,2013-01-23 17:03:00,
2013-01-23 10:12:00,33.0,7.0,-100.00,North,8,1.0,3.0,33,0.00,,,0.00,253.000000,,2013-01-23 17:12:00,
2013-01-23 10:22:00,33.0,7.0,-100.00,North,8,1.0,3.0,33,0.00,,,0.00,253.000000,,2013-01-23 17:22:00,
2013-01-23 10:33:00,33.0,7.0,-100.00,North,8,1.0,3.0,33,0.00,,,0.00,253.000000,,2013-01-23 17:33:00,
2013-01-23 10:53:00,34.0,8.0,-100.00,SW,232,4.0,5.0,33,0.00,,,0.00,203.000000,,2013-01-23 17:53:00,
2013-01-23 11:03:00,34.0,8.0,-100.00,SW,232,4.0,5.0,33,0.00,,,0.00,203.000000,,2013-01-23 18:03:00,
2013-01-23 11:12:00,34.0,8.0,-100.00,SW,232,4.0,5.0,33,0.00,,,0.00,203.000000,,2013-01-23 18:12:00,
2013-01-23 11:23:00,34.0,8.0,-100.00,SW,232,4.0,5.0,33,0.00,,,0.00,203.000000,,2013-01-23 18:23:00,
2013-01-23 11:32:00,34.0,8.0,-100.00,SW,232,4.0,5.0,33,0.00,,,0.00,203.000000,,2013-01-23 18:32:00,
2013-01-23 11:53:00,42.0,10.0,-100.00,SSW,202,2.0,5.0,26,0.00,,,0.00,407.000000,,2013-01-23 18:53:00,
2013-01-23 12:02:00,42.0,10.0,-100.00,SSW,202,2.0,5.0,26,0.00,,,0.00,407.000000,,2013-01-23 19:02:00,
2013-01-23 12:12:00,42.0,10.0,-100.00,SSW,202,2.0,5.0,26,0.00,,,0.00,407.000000,,2013-01-23 19:12:00,
2013-01-23 12:22:00,42.0,10.0,-100.00,SSW,202,2.0,5.0,26,0.00,,,0.00,407.000000,,2013-01-23 19:22:00,
2013-01-23 12:32:00,42.0,10.0,-100.00,SSW,202,2.0,5.0,26,0.00,,,0.00,407.000000,,2013-01-23 19:32:00,
2013-01-23 12:53:00,38.0,9.0,-100.00,SE,125,2.0,6.0,30,0.00,,,0.00,547.000000,,2013-01-23 19:53:00,
2013-01-23 13:03:00,38.0,9.0,-100.00,SE,125,2.0,6.0,30,0.00,,,0.00,547.000000,,2013-01-23 20:03:00,
2013-01-23 13:12:00,38.0,9.0,-100.00,SE,125,2.0,6.0,30,0.00,,,0.00,547.000000,,2013-01-23 20:12:00,
2013-01-23 13:22:00,38.0,9.0,-100.00,SE,125,2.0,6.0,30,0.00,,,0.00,547.000000,,2013-01-23 20:22:00,
2013-01-23 13:32:00,38.0,9.0,-100.00,SE,125,2.0,6.0,30,0.00,,,0.00,547.000000,,2013-01-23 20:32:00,
2013-01-23 13:53:00,41.0,9.0,-100.00,SSW,195,3.0,4.0,26,0.00,,,0.00,436.000000,,2013-01-23 20:53:00,
2013-01-23 14:02:00,41.0,9.0,-100.00,SSW,195,3.0,4.0,26,0.00,,,0.00,436.000000,,2013-01-23 21:02:00,
2013-01-23 14:12:00,41.0,9.0,-100.00,SSW,195,3.0,4.0,26,0.00,,,0.00,436.000000,,2013-01-23 21:12:00,
2013-01-23 14:22:00,41.0,9.0,-100.00,SSW,195,3.0,4.0,26,0.00,,,0.00,436.000000,,2013-01-23 21:22:00,
2013-01-23 14:33:00,41.0,9.0,-100.00,SSW,195,3.0,4.0,26,0.00,,,0.00,436.000000,,2013-01-23 21:33:00,
2013-01-23 14:53:00,41.0,10.0,-100.00,South,183,3.0,4.0,27,0.00,,,0.00,419.000000,,2013-01-23 21:53:00,
2013-01-23 15:02:00,41.0,10.0,-100.00,South,183,3.0,4.0,27,0.00,,,0.00,419.000000,,2013-01-23 22:02:00,
2013-01-23 15:12:00,41.0,10.0,-100.00,South,183,3.0,4.0,27,0.00,,,0.00,419.000000,,2013-01-23 22:12:00,
2013-01-23 15:22:00,41.0,10.0,-100.00,South,183,3.0,4.0,27,0.00,,,0.00,419.000000,,2013-01-23 22:22:00,
2013-01-23 15:33:00,41.0,10.0,-100.00,South,183,3.0,4.0,27,0.00,,,0.00,419.000000,,2013-01-23 22:33:00,
2013-01-23 16:03:00,42.0,8.0,-100.00,SSW,193,3.0,6.0,24,0.00,,,0.00,433.000000,,2013-01-23 23:03:00,
2013-01-23 16:12:00,42.0,8.0,-100.00,SSW,193,3.0,6.0,24,0.00,,,0.00,433.000000,,2013-01-23 23:12:00,
2013-01-23 16:22:00,42.0,8.0,-100.00,SSW,193,3.0,6.0,24,0.00,,,0.00,433.000000,,2013-01-23 23:22:00,
2013-01-23 16:33:00,42.0,8.0,-100.00,SSW,193,3.0,6.0,24,0.00,,,0.00,433.000000,,2013-01-23 23:33:00,
2013-01-23 16:53:00,36.0,9.0,-100.00,South,178,4.0,6.0,32,0.00,,,0.00,145.000000,,2013-01-23 23:53:00,
2013-01-23 17:03:00,36.0,9.0,-100.00,South,178,4.0,6.0,32,0.00,,,0.00,145.000000,,2013-01-24 00:03:00,
2013-01-23 17:12:00,36.0,9.0,-100.00,South,178,4.0,6.0,32,0.00,,,0.00,145.000000,,2013-01-24 00:12:00,
2013-01-23 17:22:00,36.0,9.0,-100.00,South,178,4.0,6.0,32,0.00,,,0.00,145.000000,,2013-01-24 00:22:00,
2013-01-23 17:32:00,36.0,9.0,-100.00,South,178,4.0,6.0,32,0.00,,,0.00,145.000000,,2013-01-24 00:32:00,
2013-01-23 17:53:00,34.0,5.0,-100.00,SSW,212,4.0,6.0,29,0.00,,,0.00,23.000000,,2013-01-24 00:53:00,
2013-01-23 18:02:00,34.0,5.0,-100.00,SSW,212,4.0,6.0,29,0.00,,,0.00,23.000000,,2013-01-24 01:02:00,
2013-01-23 18:12:00,34.0,5.0,-100.00,SSW,212,4.0,6.0,29,0.00,,,0.00,23.000000,,2013-01-24 01:12:00,
2013-01-23 18:22:00,34.0,5.0,-100.00,SSW,212,4.0,6.0,29,0.00,,,0.00,23.000000,,2013-01-24 01:22:00,
2013-01-23 18:32:00,34.0,5.0,-100.00,SSW,212,4.0,6.0,29,0.00,,,0.00,23.000000,,2013-01-24 01:32:00,
2013-01-23 18:52:00,30.0,6.0,-100.00,NE,40,3.0,5.0,36,0.00,,,0.00,0.000000,,2013-01-24 01:52:00,
2013-01-23 19:02:00,30.0,6.0,-100.00,NE,40,3.0,5.0,36,0.00,,,0.00,0.000000,,2013-01-24 02:02:00,
2013-01-23 19:12:00,30.0,6.0,-100.00,NE,40,3.0,5.0,36,0.00,,,0.00,0.000000,,2013-01-24 02:12:00,
2013-01-23 19:22:00,30.0,6.0,-100.00,NE,40,3.0,5.0,36,0.00,,,0.00,0.000000,,2013-01-24 02:22:00,
2013-01-23 19:32:00,30.0,6.0,-100.00,NE,40,3.0,5.0,36,0.00,,,0.00,0.000000,,2013-01-24 02:32:00,
2013-01-23 20:02:00,31.0,6.0,-100.00,South,187,3.0,5.0,34,0.00,,,0.00,0.000000,,2013-01-24 03:02:00,
2013-01-23 20:12:00,31.0,6.0,-100.00,South,187,3.0,5.0,34,0.00,,,0.00,0.000000,,2013-01-24 03:12:00,
2013-01-23 20:22:00,31.0,6.0,-100.00,South,187,3.0,5.0,34,0.00,,,0.00,0.000000,,2013-01-24 03:22:00,
2013-01-23 20:32:00,31.0,6.0,-100.00,South,187,3.0,5.0,34,0.00,,,0.00,0.000000,,2013-01-24 03:32:00,
2013-01-23 20:53:00,31.0,5.0,-100.00,SSE,155,3.0,4.0,33,0.00,,,0.00,0.000000,,2013-01-24 03:53:00,
2013-01-23 21:02:00,31.0,5.0,-100.00,SSE,155,3.0,4.0,33,0.00,,,0.00,0.000000,,2013-01-24 04:02:00,
2013-01-23 21:12:00,31.0,5.0,-100.00,SSE,155,3.0,4.0,33,0.00,,,0.00,0.000000,,2013-01-24 04:12:00,
2013-01-23 21:22:00,31.0,5.0,-100.00,SSE,155,3.0,4.0,33,0.00,,,0.00,0.000000,,2013-01-24 04:22:00,
2013-01-23 21:32:00,31.0,5.0,-100.00,SSE,155,3.0,4.0,33,0.00,,,0.00,0.000000,,2013-01-24 04:32:00,
2013-01-23 21:53:00,28.0,7.0,-100.00,ESE,116,2.0,6.0,41,0.00,,,0.00,0.000000,,2013-01-24 04:53:00,
2013-01-23 22:03:00,28.0,7.0,-100.00,ESE,116,2.0,6.0,41,0.00,,,0.00,0.000000,,2013-01-24 05:03:00,
2013-01-23 22:12:00,28.0,7.0,-100.00,ESE,116,2.0,6.0,41,0.00,,,0.00,0.000000,,2013-01-24 05:12:00,
2013-01-23 22:22:00,28.0,7.0,-100.00,ESE,116,2.0,6.0,41,0.00,,,0.00,0.000000,,2013-01-24 05:22:00,
2013-01-23 22:32:00,28.0,7.0,-100.00,ESE,116,2.0,6.0,41,0.00,,,0.00,0.000000,,2013-01-24 05:32:00,
2013-01-23 22:53:00,30.0,4.0,-100.00,SSW,195,2.0,4.0,33,0.00,,,0.00,0.000000,,2013-01-24 05:53:00,
2013-01-23 23:02:00,30.0,4.0,-100.00,SSW,195,2.0,4.0,33,0.00,,,0.00,0.000000,,2013-01-24 06:02:00,
2013-01-23 23:12:00,30.0,4.0,-100.00,SSW,195,2.0,4.0,33,0.00,,,0.00,0.000000,,2013-01-24 06:12:00,
2013-01-23 23:22:00,30.0,4.0,-100.00,SSW,195,2.0,4.0,33,0.00,,,0.00,0.000000,,2013-01-24 06:22:00,
2013-01-23 23:32:00,30.0,4.0,-100.00,SSW,195,2.0,4.0,33,0.00,,,0.00,0.000000,,2013-01-24 06:32:00,
2013-01-23 23:52:00,28.0,8.0,-100.00,East,91,2.0,5.0,42,0.00,,,0.00,0.000000,,2013-01-24 06:52:00,